Weather History for Vancouver, BC

Change the Weather History Date:

Thursday, February 7, 2013

  Actual Average Record
Temperature  
Mean Temperature 42 °F -  
Max Temperature 50 °F 43 °F 60 °F (1998)
Min Temperature 35 °F 34 °F 22 °F (2014)
Degree Days  
Heating Degree Days 22    
Moisture  
Dew Point 34 °F    
Average Humidity 67    
Maximum Humidity 87    
Minimum Humidity 48    
Precipitation  
Precipitation 0.01 in - - ()
Sea Level Pressure  
Sea Level Pressure 29.99 in    
Wind  
Wind Speed 12 mph ()    
Max Wind Speed 24 mph    
Max Gust Speed 33 mph    
Visibility 15.3 miles    
Events Rain    
Averages and records for this station are not official NWS values.
T = Trace of Precipitation, MM = Missing Value Source: Averaged Metar Reports

Daily Weather History Graph

Daily Weather History Graph

Search for Another Location

Airport:

Trip Planner

Search our weather history database for the weather conditions in past years. The results will help you decide how hot, cold, wet, or windy it might be!

Date:

Astronomy

Feb. 07, 2013 Rise Set
Actual Time 7:34 AM PST 5:20 PM PST
Civil Twilight 7:00 AM PST 5:53 PM PST
Nautical Twilight 6:23 AM PST 6:31 PM PST
Astronomical Twilight 5:46 AM PST 7:08 PM PST
Moon 5:26 AM PST (2/7) 2:43 PM PST (2/7)
Length of Visible Light 10h 52m
Length of Day
9h 45m
Waning Crescent, 8% of the Moon is Illuminated
Feb 7
Waning Crescent
Feb 9
New
Feb 17
First Quarter
Feb 25
Full
Mar 4
Last Quarter

Hourly Weather History & Observations

Time (PST) Temp. Windchill Dew Point Humidity Pressure Visibility Wind Dir Wind Speed Gust Speed Precip Events Conditions
12:00 AM 44.6 °F 36.6 °F 35.6 °F 71% 29.75 in 15.0 mi East 19.6 mph 25.3 mph N/A   Overcast
12:54 AM 44.6 °F 37.4 °F - N/A% - 12.0 mi ESE 16.1 mph 23.0 mph N/A Rain Light Rain
1:00 AM 44.6 °F 36.9 °F 35.6 °F 71% 29.75 in 12.0 mi East 18.4 mph - N/A Rain Light Rain
2:00 AM 44.6 °F 36.4 °F 35.6 °F 71% 29.75 in 12.0 mi East 20.7 mph 28.8 mph N/A Rain Light Rain
2:16 AM 44.6 °F 35.7 °F - N/A% - 15.0 mi ESE 24.2 mph 32.2 mph N/A   Overcast
3:00 AM 44.6 °F 36.4 °F 35.6 °F 71% 29.76 in 15.0 mi ESE 20.7 mph 28.8 mph N/A   Overcast
4:00 AM 45 °F - 36 °F 63% 29.80 in 15 mi SE 23.0 mph - -   Partly Cloudy
4:00 AM 44.6 °F 36.4 °F 37.4 °F 76% 29.80 in 15.0 mi SE 20.7 mph 33.4 mph N/A   Overcast
5:00 AM 44.6 °F 37.2 °F 37.4 °F 76% 29.84 in 15.0 mi SE 17.3 mph - N/A   Overcast
6:00 AM 44.6 °F 37.2 °F 35.6 °F 71% 29.86 in 15.0 mi SE 17.3 mph - N/A   Overcast
7:00 AM 42.8 °F 37.0 °F 35.6 °F 76% 29.90 in 15.0 mi SE 10.4 mph - N/A   Mostly Cloudy
8:00 AM 44.6 °F 37.4 °F 33.8 °F 66% 29.94 in 15.0 mi SSE 16.1 mph - N/A   Mostly Cloudy
9:00 AM 44.6 °F 39.2 °F 33.8 °F 66% 29.97 in 15.0 mi SSE 10.4 mph 18.4 mph N/A   Mostly Cloudy
10:00 AM 45 °F - 33 °F 52% 29.99 in 15 mi SSE 10.4 mph - -   Mostly Cloudy
10:00 AM 44.6 °F 38.4 °F 33.8 °F 66% 29.99 in 15.0 mi SSE 12.7 mph - N/A   Mostly Cloudy
11:00 AM 46.4 °F 41.5 °F 32.0 °F 57% 30.03 in 15.0 mi SE 10.4 mph - N/A   Mostly Cloudy
12:00 PM 46.4 °F 44.3 °F 32.0 °F 57% 30.04 in 15.0 mi South 4.6 mph - N/A   Mostly Cloudy
1:00 PM 48.2 °F - 32.0 °F 54% 30.04 in 15.0 mi South 6.9 mph - N/A   Mostly Cloudy
2:00 PM 48.2 °F - 33.8 °F 58% 30.05 in 20.0 mi SW 6.9 mph - N/A   Mostly Cloudy
3:00 PM 48.2 °F - 33.8 °F 58% 30.06 in 20.0 mi SSW 8.1 mph - N/A   Scattered Clouds
4:00 PM 48 °F - 34 °F 48% 30.07 in 28 mi SW 5.8 mph - -   Scattered Clouds
4:00 PM 48.2 °F - 33.8 °F 58% 30.07 in 30.0 mi SW 5.8 mph - N/A   Partly Cloudy
5:00 PM 46.4 °F 44.3 °F 33.8 °F 62% 30.09 in 30.0 mi SSW 4.6 mph - N/A   Partly Cloudy
6:00 PM 44.6 °F - 32.0 °F 61% 30.11 in 30.0 mi South 2.3 mph - N/A   Partly Cloudy
7:00 PM 41.0 °F 37.1 °F 32.0 °F 70% 30.13 in 30.0 mi North 5.8 mph - N/A   Partly Cloudy
8:00 PM 39.2 °F - 32.0 °F 75% 30.15 in 30.0 mi ENE 2.3 mph - N/A   Partly Cloudy
9:00 PM 39.2 °F 37.0 °F 32.0 °F 75% 30.17 in 30.0 mi NNE 3.5 mph - N/A   Mostly Cloudy
10:00 PM 36 °F - 31 °F 77% 30.19 in 28 mi NE 3.5 mph - -   Clear
10:00 PM 35.6 °F 32.8 °F 32.0 °F 87% 30.19 in 30.0 mi NE 3.5 mph - N/A   Mostly Cloudy
11:00 PM 35.6 °F 31.7 °F 30.2 °F 81% 30.20 in 20.0 mi East 4.6 mph - N/A   Partly Cloudy